Location: Baumgartsau
(48.4586°N, 14.0864°E)
Time: 17:59:38
(UTC+00:00)

BREEZE M DEB (TANK) - Visible Passes

Search period start: 14 May 2021 00:00
Search period end: 24 May 2021 00:00
Orbit: 295 x 11849 km, 49.5° (Epoch: 13 May)

Date Brightness Start Highest point End Pass type
(mag) Time Alt. Az. Time Alt. Az. Time Alt. Az.
14 May 8.3 00:38:34 10° WNW 01:01:04 19° WSW 01:35:00 12° SW visible
14 May 7.0 19:30:58 10° WNW 19:46:02 75° SSW 20:46:42 17° SE visible
14 May 8.2 23:34:23 10° WNW 23:59:32 29° WSW 00:37:03 18° SW visible
15 May 6.6 18:31:29 10° WNW 18:43:44 84° SSW 19:47:36 10° SE visible
15 May 8.1 22:32:37 10° WNW 22:56:57 39° WSW 23:39:17 22° SSW visible
16 May 7.8 21:31:54 10° WNW 21:53:45 49° SW 22:41:41 23° S visible
17 May 7.4 20:31:45 10° WNW 20:50:28 59° SW 21:44:14 21° SSE visible
18 May 8.5 00:45:53 10° W 01:00:55 13° WSW 01:22:22 10° WSW visible
18 May 7.1 19:31:57 10° WNW 19:47:30 69° SSW 20:46:54 17° SSE visible
18 May 8.3 23:37:23 10° WNW 23:59:56 22° WSW 00:37:22 13° SW visible
19 May 6.7 18:32:22 10° WNW 18:45:04 78° SSW 19:49:29 10° SE visible
19 May 8.2 22:34:23 10° WNW 22:57:46 32° WSW 23:40:11 17° SSW visible
20 May 7.9 21:33:05 10° WNW 21:54:50 42° SW 22:43:06 19° S visible
21 May 7.6 20:32:37 10° WNW 20:51:37 52° SW 21:46:07 18° S visible
22 May 7.2 19:32:37 10° WNW 19:48:34 62° SW 20:49:15 15° SSE visible
22 May 8.4 23:41:49 10° W 23:59:47 16° WSW 00:29:48 10° SW visible
23 May 6.9 18:32:52 10° WNW 18:46:00 72° SSW 19:50:01 10° SE visible
